Back to catalog

CZ-6A DEB

AlivePO
NORAD 61459·DEBRIS·🇨🇳 China

Launched Aug 6, 2024 from Taiyuan Satellite Launch Center

Loading…

Next Passes (next 24 hours)

TLE

FreshSource: Space-Track

Epoch: Sep 14, 2026, 14:25 UTC

1 61459U 24140ZR  26257.60110665  .00001512  00000-0  43190-3 0  9992
2 61459  88.4612 210.6576 0043908 344.4378  15.5472 14.44091664108620

Track CZ-6A DEB in real time with AllMySat

Download on the App Store